Regional Weather Roundup
Issued by NWS

Home | Current Version | Previous Version | Graphics & Text | Print | Product List | Glossary On
Versions: 1 2 3 4 5 6 7 8 9 10 11 12 13 14 15 16 17 18 19 20 21 22 23 24 25 26 27 28 29 30 31 32 33 34 35 36 37 38 39 40 41 42 43 44 45 46 47 48 49 50
000
ASUS45 KTFX 031310
RWRMT
MONTANA REGIONAL WEATHER ROUNDUP
NATIONAL WEATHER SERVICE GREAT FALLS MT
700 AM MDT THU SEP 03 2015

NOTE: "FAIR" INDICATES FEW OR NO CLOUDS BELOW 12000 FEET WITH NO
SIGNIFICANT WEATHER AND/OR OBSTRUCTIONS TO VISIBILITY.

MTZ001>007-043-031400-
WEST OF THE DIVIDE

CITY           SKY/WX    TMP DP  RH WIND       PRES   REMARKS
KALISPELL      CLOUDY    54  46  74 SE7       29.89S
MISSOULA       CLOUDY    50  49  96 N5        29.94S
BUTTE          CLOUDY    48  38  68 VRB7      29.96R
MULLAN PASS    CLOUDY    41  36  82 VRB3      29.96R
DEER LODGE       N/A     46  39  76 CALM      29.97R
EUREKA           N/A     43  37  81 CALM      29.92S
HAMILTON         N/A     52  46  82 N9        29.91S
LIBBY            N/A     45  37  76 CALM      29.92R
$$

MTZ008-052>055-031400-
SOUTHWEST MONTANA

CITY           SKY/WX    TMP DP  RH WIND       PRES   REMARKS
BOZEMAN        CLOUDY    51  43  74 S10       29.85F
DILLON           N/A    N/A N/A N/A MISG      29.88R
W YELLOWSTONE  MOCLDY    39  32  75 CALM      29.98R
$$

MTZ009-010-012-014-046-048-049-054-031400-
EAST SLOPES AND CENTRAL MONTANA

CITY           SKY/WX    TMP DP  RH WIND       PRES   REMARKS
CUT BANK       LGT RAIN  48  46  93 SE5       29.92F
GREAT FALLS    MOCLDY    53  36  52 N5        29.95R
MALMSTROM AFB  MOCLDY    53  37  54 N6        29.95R
HELENA         CLOUDY    58  39  49 W8        29.91R
CONRAD           N/A     52  49  89 NW6       29.95F
$$

MTZ011-013-016-021-045-047-050-051-031400-
NORTH CENTRAL MONTANA

CITY           SKY/WX    TMP DP  RH WIND       PRES   REMARKS
HAVRE          MOCLDY    48  38  68 S8        29.91R
LEWISTOWN      CLOUDY    50  41  71 S6        29.93R
N BAR RANCH      N/A     57  39  51 E8        29.92S
CHINOOK          N/A     48  37  66 CALM      29.91R
FORT BENTON      N/A     50  37  62 CALM      29.92R
$$

MTZ017>020-022>027-061-062-031400-
NORTHEAST MONTANA

CITY           SKY/WX    TMP DP  RH WIND       PRES   REMARKS
GLASGOW        PTCLDY    65  35  33 N10G17    29.76R
JORDAN           N/A     54  37  52 NW7       29.79R
SIDNEY         CLEAR     66  45  45 N9          N/A
WOLF POINT     PTCLDY    68  40  35 E10       29.71R
PLENTYWOOD       N/A     66  39  37 N20G29    29.70S
POPLAR           N/A     66  39  37 NE8       29.71R
$$

MTZ028>42-056>058-031400-
SOUTHCENTRAL AND SOUTHEAST MONTANA

CITY           SKY/WX    TMP DP  RH WIND       PRES   REMARKS
BAKER          PTCLDY    59  47  64 NW3       29.73R
BILLINGS       LGT RAIN  62  35  36 N13       29.90F
LIVINGSTON     PTCLDY    56  42  59 E20G28    29.87R
MILES CITY     PTCLDY    62  42  47 NW7       29.74R
EKALAKA          N/A     65  36  34 W6        29.78R
FORSYTH          N/A     64  37  36 SW3       29.78R
LAUREL           N/A     61  41  47 W1        29.92S
$$

REGIONAL REPORTS...DAKOTAS

CITY           SKY/WX    TMP DP  RH WIND       PRES   REMARKS
WILLISTON      PTCLDY    64  50  60 N10       29.69R
MINOT          CLOUDY    70  68  93 S3        29.68R FOG
DICKINSON      CLEAR     63  54  72 S7        29.67R
CROSBY           N/A     63  57  82 N14       29.70R
BISMARCK       CLEAR     67  66  97 E9        29.69R
GRAND FORKS    CLOUDY    71  69  93 SE17      29.78R FOG
FARGO          CLOUDY    73  68  84 SE13      29.79S
BUFFALO SD       N/A     67  45  45 SE5       29.68R
RAPID CITY     CLEAR     62  51  67 CALM      29.79S
$$

REGIONAL REPORTS...WYOMING/IDAHO/WASHINGTON

CITY           SKY/WX    TMP DP  RH WIND       PRES   REMARKS
GILLETTE       PTCLDY    69  38  32 SW13      29.85R
SHERIDAN       CLOUDY    63  37  38 NW7       29.86R
BUFFALO WY     MOCLDY    63  36  36 NW3       29.92R
CODY           CLOUDY    61  37  41 NE6       29.91R
YELLOWSTONE LA   N/A     44  43  96 NW5       30.09S
IDAHO FALLS    MOCLDY    61  39  44 S17       29.89R
SALMON         CLOUDY    54  43  66 CALM      29.83F
BOISE          MOCLDY    56  43  61 W9        29.88R
SPOKANE        PTCLDY    47  36  65 SW7       29.90R
$$

REGIONAL REPORTS...ALBERTA

CITY           SKY/WX    TMP DP  RH WIND       PRES   REMARKS
EDMONTON       CLEAR     39  36  87 W9        29.90R
CALGARY        MOCLDY    39  34  81 N5        29.93R
LETHBRIDGE     CLOUDY    46  37  71 W8        29.90R
MEDICINE HAT   CLOUDY    55  46  71 W6        29.90R
WATERTON GATE    N/A     43  39  87 W2          N/A
CARDSTON         N/A     45  36  70 N3          N/A
MILK RIVER       N/A     48  46  93 SE6         N/A
ONEFOUR          N/A     52  37  58 NW7         N/A
$$

REGIONAL REPORTS...SASKATCHEWAN

CITY           SKY/WX    TMP DP  RH WIND       PRES   REMARKS
SWIFT CURRENT  CLEAR     50  45  81 W8        29.86R
REGINA         PTCLDY    50  46  87 N5        29.75S
SASKATOON      MOCLDY    52  45  76 W6        29.80R
CYPRESS HILLS    N/A     46  36  66 NE3         N/A
VAL MARIE        N/A     46  39  76 NW9         N/A
ROCKGLEN         N/A     57  41  54 N12         N/A
$$


USA.gov is the U.S. government's official web portal to all federal, state and local government web resources and services.